CDT,Max TemperatureF,Mean TemperatureF,Min TemperatureF,Max Dew PointF,MeanDew PointF,Min DewpointF,Max Humidity, Mean Humidity, Min Humidity, Max Sea Level PressureIn, Mean Sea Level PressureIn, Min Sea Level PressureIn, Max VisibilityMiles, Mean VisibilityMiles, Min VisibilityMiles, Max Wind SpeedMPH, Mean Wind SpeedMPH, Max Gust SpeedMPH,PrecipitationIn, CloudCover, Events, WindDirDegrees
2012-9-1,93,78,64,66,64,61,90,67,38,30.01,29.96,29.90,10,8,6,7,5,,0.00,0,,29
2012-9-2,95,75,57,66,61,55,100,66,35,29.97,29.90,29.82,10,8,0,15,4,18,0.00,0,Fog,154
2012-9-3,87,78,69,71,66,63,90,75,48,29.97,29.88,29.81,10,8,1,24,6,36,0.40,3,Rain-Thunderstorm,125
2012-9-4,99,81,64,71,65,59,96,71,30,29.89,29.80,29.65,10,6,2,16,4,23,0.01,0,,163
2012-9-5,87,72,55,63,54,45,93,56,24,29.94,29.83,29.67,10,10,8,17,8,24,0.00,0,,337
2012-9-6,91,69,48,61,50,42,89,56,19,30.00,29.87,29.72,10,10,9,20,5,28,0.00,0,,155
2012-9-7,77,64,52,63,53,43,87,65,34,30.12,29.95,29.71,10,10,8,21,11,29,0.02,1,Rain,336
2012-9-8,87,66,44,45,41,34,90,49,16,30.16,30.05,29.92,10,10,10,17,7,26,0.00,0,,300
2012-9-9,78,60,45,47,44,40,86,61,31,30.24,30.15,30.09,10,10,9,10,6,,0.00,0,,358
2012-9-10,90,68,46,51,47,43,90,52,22,30.10,29.97,29.83,10,10,10,24,9,36,0.00,0,,170
2012-9-11,99,80,61,52,48,43,67,38,15,29.87,29.82,29.76,10,10,10,28,15,34,0.00,0,,176
2012-9-12,79,67,55,54,49,35,94,64,23,30.30,30.10,29.84,10,8,2,25,13,36,0.52,4,Rain-Thunderstorm,6
2012-9-13,73,62,50,53,49,42,94,75,33,30.42,30.36,30.30,10,9,4,9,4,,0.02,2,Rain,165
2012-9-14,84,65,46,48,42,33,86,52,18,30.35,30.28,30.21,10,10,7,16,9,24,0.00,0,,185
2012-9-15,81,62,45,55,46,40,90,60,26,30.25,30.16,30.05,10,10,7,18,8,23,0.00,0,,170
2012-9-16,79,65,51,59,56,51,100,82,42,30.05,29.99,29.87,10,6,0,14,7,20,0.00,3,Fog,181
2012-9-17,70,60,46,57,49,35,100,76,29,30.08,29.98,29.88,10,8,0,18,8,28,0.09,4,Fog-Rain-Thunderstorm,358
2012-9-18,73,54,35,41,36,30,92,57,24,30.12,30.03,29.91,10,10,7,12,4,,0.00,0,,187
2012-9-19,91,68,46,47,39,29,83,47,15,29.98,29.84,29.75,10,10,10,24,10,33,0.00,0,,235
2012-9-20,73,59,45,43,36,29,71,43,25,30.05,29.98,29.92,10,9,2,12,6,20,0.00,1,,293
2012-9-21,77,60,46,44,36,28,77,46,17,29.93,29.86,29.80,10,10,6,25,8,33,0.00,0,,310
2012-9-22,64,52,37,35,28,22,73,44,20,30.30,30.21,29.96,10,10,8,17,10,24,0.00,0,,343
2012-9-23,70,50,32,34,29,26,85,52,20,30.38,30.28,30.20,10,10,9,8,3,,0.00,0,,33
2012-9-24,77,57,39,43,38,32,79,54,24,30.18,29.99,29.84,10,9,4,13,6,17,0.00,0,,175
2012-9-25,87,64,42,49,40,34,85,49,16,29.88,29.84,29.80,10,8,2,9,3,,0.00,0,,335
2012-9-26,80,63,46,38,28,16,68,37,9,30.15,30.06,29.91,10,7,2,14,10,21,0.00,0,,354
2012-9-27,79,56,33,36,28,13,81,48,8,30.23,30.18,30.10,10,6,2,9,5,,0.00,0,,354
2012-9-28,78,55,33,36,31,25,79,46,15,30.21,30.15,30.10,10,8,4,7,3,,0.00,0,,150
2012-9-29,82,59,37,44,36,30,76,50,17,30.18,30.11,30.02,10,8,2,8,1,,0.00,0,,193
2012-9-30,82,62,43,42,38,33,76,48,20,30.02,29.96,29.89,10,9,6,6,0,,0.00,0,,195